Change the Weather History Date:

Thursday, January 30, 2014

  Actual Average (VTSP) Record (VTSP)
Temperature  
Mean Temperature 80 °F -  
Max Temperature 93 °F 90 °F 98 °F (1998)
Min Temperature 68 °F 75 °F 68 °F (2014)
Cooling Degree Days 16    
Growing Degree Days 30 (Base 50)    
Moisture  
Dew Point 64 °F    
Average Humidity 64    
Maximum Humidity 94    
Minimum Humidity 32    
Precipitation  
Precipitation 0.00 in - - ()
Sea Level Pressure  
Sea Level Pressure 29.91 in    
Wind  
Wind Speed 5 mph ()    
Max Wind Speed 12 mph    
Max Gust Speed 22 mph    
Visibility 4.7 miles    
Events      
Averages and records for this station are not official NWS values.
T = Trace of Precipitation, MM = Missing Value Source: Averaged Metar Reports

Daily Weather History Graph

Daily Weather History Graph

Search for Another Location

Airport or City:

Trip Planner

Search our weather history database for the weather conditions in past years. The results will help you decide how hot, cold, wet, or windy it might be!

Date:

Astronomy

Jan. 30, 2014 Rise Set
Actual Time 6:44 AM ICT 6:30 PM ICT
Civil Twilight 6:22 AM ICT 6:52 PM ICT
Nautical Twilight 5:56 AM ICT 7:17 PM ICT
Astronomical Twilight 5:31 AM ICT 7:42 PM ICT
Moon 5:47 AM ICT (1/30) 5:57 PM ICT (1/30)
Length of Visible Light 12h 30m
Length of Day
11h 46m
Waning Crescent, 1% of the Moon is Illuminated
Jan 30
Waning Crescent
Jan 31
New
Feb 7
First Quarter
Feb 15
Full
Feb 23
Last Quarter

Hourly Weather History & Observations

Time (ICT) Temp. Heat Index Dew Point Humidity Pressure Visibility Wind Dir Wind Speed Gust Speed Precip Events Conditions
12:00 AM 69.8 °F - 66.2 °F 88% 29.95 in 5.6 mi NNE 3.5 mph - N/A   Unknown
1:00 AM 68.0 °F - 66.2 °F 94% 29.95 in 5.0 mi NNE 3.5 mph - N/A   Unknown
3:00 AM 68.0 °F - 66.2 °F 94% 29.92 in 5.6 mi NNE 3.5 mph - N/A   Unknown
4:00 AM 68.0 °F - 66.2 °F 94% 29.89 in 5.6 mi NNE 3.5 mph - N/A   Unknown
6:00 AM 68.0 °F - 66.2 °F 94% 29.92 in 4.3 mi NNE 4.6 mph - N/A   Unknown
7:00 AM 68.0 °F - 66.2 °F 94% 29.95 in 3.1 mi NE 3.5 mph - N/A   Mist
8:00 AM 69.8 °F - 68.0 °F 94% 29.95 in 4.3 mi NNE 5.8 mph - N/A   Unknown
9:00 AM 77.0 °F - 69.8 °F 78% 29.98 in 3.1 mi NE 6.9 mph - N/A   Partly Cloudy
10:00 AM 84.2 °F 86.6 °F 66.2 °F 55% 29.98 in 4.3 mi East 8.1 mph - N/A   Partly Cloudy
11:00 AM 86.0 °F 87.3 °F 64.4 °F 48% 29.98 in 5.0 mi ENE 9.2 mph - N/A   Scattered Clouds
12:00 PM 89.6 °F 90.1 °F 62.6 °F 40% 29.95 in 6.2 mi ENE 11.5 mph 21.9 mph N/A   Scattered Clouds
1:00 PM 91.4 °F 91.4 °F 60.8 °F 36% 29.92 in 5.6 mi Variable 10.4 mph - N/A   Scattered Clouds
2:00 PM 93.2 °F 93.3 °F 60.8 °F 34% 29.86 in 5.6 mi Variable 6.9 mph - N/A   Scattered Clouds
3:00 PM 93.2 °F 93.3 °F 60.8 °F 34% 29.83 in 6.2 mi East 6.9 mph - N/A   Scattered Clouds
4:00 PM 93.2 °F 92.6 °F 59.0 °F 32% 29.83 in 6.2 mi East 10.4 mph - N/A   Scattered Clouds
5:00 PM 89.6 °F 88.9 °F 59.0 °F 36% 29.83 in 6.2 mi East 8.1 mph - N/A   Partly Cloudy
6:00 PM 86.0 °F 86.1 °F 60.8 °F 43% 29.86 in 5.6 mi East 8.1 mph - N/A   Partly Cloudy
7:00 PM 78.8 °F - 60.8 °F 54% 29.86 in 2.5 mi East 3.5 mph - N/A   Drizzle
8:00 PM 77.0 °F - 62.6 °F 61% 29.89 in 2.5 mi ENE 4.6 mph - N/A   Drizzle
9:00 PM 73.4 °F - 62.6 °F 69% 29.92 in 2.5 mi ENE 3.5 mph - N/A   Partly Cloudy